Location: Asarope
(8.2500°N, 4.4833°E)
Time: 14:02:44
(UTC+00:00)

ATLAS 2A CENTAUR R/B - Pass Details

Date: 07 June 2020
Orbit: 244 x 14740 km, 26.8° (Epoch: 07 July)

Event Time Altitude Azimuth Distance (km) Brightness Sun altitude
Exits shadow 03:00:19 84° 272° (W) 1,237 3.8 -32.2°
Maximum altitude 03:00:34 87° 331° (NNW) 1,195 3.8 -32.2°
Drops below altitude 10° 03:04:47 10° 62° (ENE) 2,013 6.1 -31.3°
Sets 03:06:06 0° 62° (ENE) 2,588 6.9 -31.0°
